| time (UTC) | temp F | wind direction | speed knots | gust knots | rain 1hr in | rain 24hr in | rain mn in | humidity % | barometer mb |
| 20260506193828 | 52 | 10 | 7.0 | 13.0 | 0.00 | 0.00 | 0.00 | 62 | 1013.4 |
| 20260506191828 | 53 | 14 | 7.0 | 13.0 | 0.00 | 0.00 | 0.00 | 62 | 1013.4 |
| 20260506190827 | 53 | 18 | 7.0 | 13.0 | 0.00 | 0.00 | 0.00 | 62 | 1013.4 |
| 20260506185827 | 53 | 17 | 7.0 | 12.2 | 0.00 | 0.00 | 0.00 | 60 | 1013.0 |
| 20260506183827 | 53 | 358 | 5.2 | 10.4 | 0.00 | 0.00 | 0.00 | 60 | 1013.0 |
| 20260506182829 | 53 | 355 | 5.2 | 10.4 | 0.00 | 0.00 | 0.00 | 63 | 1012.8 |
| 20260506181827 | 53 | 355 | 5.2 | 10.4 | 0.00 | 0.00 | 0.00 | 63 | 1012.8 |
| 20260506180828 | 53 | 352 | 5.2 | 10.4 | 0.00 | 0.00 | 0.00 | 63 | 1012.8 |
| 20260506175827 | 53 | 356 | 6.1 | 13.0 | 0.00 | 0.00 | 0.00 | 63 | 1012.6 |
| 20260506172827 | 54 | 359 | 7.0 | 14.8 | 0.00 | 0.00 | 0.00 | 60 | 1012.6 |
| 20260506164827 | 54 | 2 | 6.1 | 12.2 | 0.00 | 0.00 | 0.00 | 62 | 1012.4 |
| 20260506161827 | 54 | 359 | 6.1 | 12.2 | 0.00 | 0.00 | 0.00 | 62 | 1012.4 |
| 20260506160827 | 54 | 0 | 6.1 | 12.2 | 0.00 | 0.01 | 0.01 | 60 | 1012.3 |
| 20260506154828 | 54 | 358 | 7.0 | 15.6 | 0.00 | 0.01 | 0.01 | 64 | 1012.4 |
| 20260506152827 | 53 | 353 | 7.8 | 15.6 | 0.00 | 0.01 | 0.01 | 64 | 1012.4 |
| 20260506144827 | 53 | 10 | 8.7 | 16.5 | 0.00 | 0.01 | 0.01 | 64 | 1012.6 |
| 20260506130827 | 53 | 10 | 8.7 | 16.5 | 0.00 | 0.01 | 0.01 | 74 | 1012.9 |
| 20260506124827 | 53 | 12 | 8.7 | 18.2 | 0.00 | 0.00 | 0.00 | 73 | 1012.6 |
| 20260506122827 | 52 | 16 | 9.6 | 18.2 | 0.00 | 0.00 | 0.00 | 73 | 1012.6 |
| 20260506120827 | 52 | 18 | 10.4 | 19.1 | 0.00 | 0.00 | 0.00 | 73 | 1012.6 |
| 20260506115827 | 53 | 353 | 10.4 | 19.1 | 0.00 | 0.00 | 0.00 | 58 | 1012.2 |
| 20260506111827 | 52 | 358 | 9.6 | 19.1 | 0.00 | 0.00 | 0.00 | 63 | 1012.5 |
| 20260506110828 | 53 | 0 | 9.6 | 19.1 | 0.00 | 0.00 | 0.00 | 63 | 1012.5 |
| 20260506103827 | 52 | 357 | 7.8 | 17.4 | 0.00 | 0.00 | 0.00 | 64 | 1012.2 |
| 20260506093827 | 52 | 358 | 8.7 | 17.4 | 0.00 | 0.00 | 0.00 | 63 | 1012.4 |
| 20260506080827 | 49 | 350 | 9.6 | 18.2 | 0.00 | 0.00 | 0.00 | 67 | 1012.6 |